Weather History for K0VG - January, 2014

Change the Weather History Date:

Sunday, January 5, 2014

  Actual Average (KLOZ) Record (KLOZ)
Temperature  
Mean Temperature 37 °F 36 °F  
Max Temperature 55 °F 44 °F 68 °F (2007)
Min Temperature 19 °F 27 °F -12 °F (1969)
Degree Days  
Heating Degree Days 28 30  
Month to date heating degree days 146  
Since 1 July heating degree days 1798  
Cooling Degree Days 0 0  
Month to date cooling degree days 0  
Year to date cooling degree days 0  
Moisture  
Dew Point 28 °F    
Average Humidity 79    
Maximum Humidity 100    
Minimum Humidity 54    
Precipitation  
Precipitation 0.16 in 0.12 in 0.70 in (1993)
Month to date precipitation 0.58  
Year to date precipitation 0.58  
Sea Level Pressure  
Sea Level Pressure 30.00 in    
Wind  
Wind Speed 1 mph (SW)    
Max Wind Speed 10 mph    
Max Gust Speed -    
Visibility 10 miles    
Events Rain    
T = Trace of Precipitation, MM = Missing Value Source: NWS Daily Summary

Daily Weather History Graph

Daily Weather History Graph

Search for Another Location

Airport or City:

Trip Planner

Search our weather history database for the weather conditions in past years. The results will help you decide how hot, cold, wet, or windy it might be!

Date:

Astronomy

Jan. 05, 2014 Rise Set
Actual Time 7:45 AM EST 5:31 PM EST
Civil Twilight 7:17 AM EST 5:59 PM EST
Nautical Twilight 6:44 AM EST 6:32 PM EST
Astronomical Twilight 6:13 AM EST 7:03 PM EST
Moon 10:34 AM EST (1/5) 10:48 PM EST (1/5)
Length of Visible Light 10h 42m
Length of Day
9h 45m
Waxing Crescent, 24% of the Moon is Illuminated
Jan 5
Waxing Crescent
Jan 7
First Quarter
Jan 15
Full
Jan 24
Last Quarter
Jan 30
New

Hourly Weather History & Observations

Time (EST) Temp. Windchill Dew Point Humidity Pressure Visibility Wind Dir Wind Speed Gust Speed Precip Events Conditions
12:15 AM 21.2 °F - 19.4 °F 93% 30.15 in 10.0 mi Calm Calm - N/A   Overcast
12:35 AM 23.0 °F - 19.4 °F 86% 30.15 in 10.0 mi Calm Calm - N/A   Overcast
12:55 AM 21.2 °F - 19.4 °F 93% 30.16 in 10.0 mi Calm Calm - N/A   Overcast
1:15 AM 19.4 °F - 19.4 °F 100% 30.15 in 10.0 mi Calm Calm - N/A   Overcast
1:35 AM 19.4 °F - 19.4 °F 100% 30.15 in 10.0 mi Calm Calm - N/A   Overcast
1:55 AM 21.2 °F - 19.4 °F 93% 30.14 in 10.0 mi Calm Calm - N/A   Overcast
2:15 AM 21.2 °F - 19.4 °F 93% 30.14 in 10.0 mi Calm Calm - N/A   Overcast
2:35 AM 19.4 °F - 17.6 °F 93% 30.12 in 10.0 mi Calm Calm - N/A   Overcast
2:55 AM 21.2 °F - 19.4 °F 93% 30.12 in 10.0 mi Calm Calm - N/A   Overcast
3:15 AM 23.0 °F - 19.4 °F 86% 30.12 in 10.0 mi Calm Calm - N/A   Overcast
3:35 AM 24.8 °F 20.5 °F 21.2 °F 86% 30.12 in 10.0 mi SW 3.5 mph - N/A   Overcast
3:55 AM 24.8 °F - 21.2 °F 86% 30.13 in 10.0 mi Calm Calm - N/A   Overcast
4:15 AM 26.6 °F 20.0 °F 21.2 °F 80% 30.14 in 10.0 mi SSW 5.8 mph - N/A   Overcast
4:35 AM 26.6 °F - 23.0 °F 86% 30.14 in 10.0 mi Calm Calm - N/A   Overcast
4:55 AM 26.6 °F 22.6 °F 23.0 °F 86% 30.13 in 10.0 mi ENE 3.5 mph - N/A   Overcast
5:15 AM 26.6 °F 22.6 °F 23.0 °F 86% 30.12 in 10.0 mi NE 3.5 mph - N/A   Overcast
5:35 AM 26.6 °F - 23.0 °F 86% 30.12 in 10.0 mi Calm Calm - N/A   Overcast
5:55 AM 28.4 °F - 23.0 °F 80% 30.11 in 10.0 mi Calm Calm - N/A   Overcast
6:15 AM 28.4 °F - 23.0 °F 80% 30.11 in 10.0 mi Calm Calm - N/A   Overcast
6:35 AM 28.4 °F - 23.0 °F 80% 30.11 in 10.0 mi Calm Calm - N/A   Overcast
6:55 AM 28.4 °F - 24.8 °F 86% 30.11 in 10.0 mi Calm Calm - N/A   Overcast
7:15 AM 28.4 °F - 24.8 °F 86% 30.11 in 10.0 mi Calm Calm - N/A   Overcast
7:35 AM 28.4 °F - 24.8 °F 86% 30.11 in 10.0 mi Calm Calm - N/A   Overcast
7:55 AM 30.2 °F - 26.6 °F 86% 30.11 in 10.0 mi Calm Calm - N/A   Overcast
8:15 AM 30.2 °F - 24.8 °F 80% 30.10 in 10.0 mi Calm Calm - N/A   Overcast
8:35 AM 32.0 °F - 26.6 °F 80% 30.10 in 10.0 mi Calm Calm - N/A   Overcast
8:55 AM 32.0 °F - 26.6 °F 80% 30.08 in 10.0 mi Calm Calm - N/A   Overcast
9:15 AM 32.0 °F - 26.6 °F 80% 30.08 in 10.0 mi Calm Calm - N/A   Overcast
9:35 AM 32.0 °F - 26.6 °F 80% 30.08 in 10.0 mi Calm Calm - N/A   Overcast
9:55 AM 32.0 °F - 28.4 °F 87% 30.08 in 10.0 mi Calm Calm - N/A   Overcast
10:15 AM 32.0 °F - 26.6 °F 80% 30.06 in 10.0 mi Calm Calm - N/A   Overcast
10:35 AM 35.6 °F - 28.4 °F 75% 30.05 in 10.0 mi Calm Calm - N/A   Overcast
10:55 AM 35.6 °F - 28.4 °F 75% 30.04 in 10.0 mi Calm Calm - N/A   Overcast
11:15 AM 37.4 °F - 28.4 °F 70% 30.03 in 10.0 mi Calm Calm - N/A   Overcast
11:35 AM 39.2 °F - 30.2 °F 70% 30.01 in 10.0 mi Calm Calm - N/A   Overcast
11:55 AM 41.0 °F - 32.0 °F 70% 29.98 in 10.0 mi Calm Calm - N/A   Overcast
12:15 PM 44.6 °F - 32.0 °F 61% 29.96 in 10.0 mi Calm Calm - N/A   Overcast
12:35 PM 44.6 °F - 35.6 °F 71% 29.94 in 10.0 mi Calm Calm - N/A   Scattered Clouds
12:55 PM 46.4 °F - 35.6 °F 66% 29.91 in 10.0 mi Calm Calm - N/A   Clear
1:15 PM 48.2 °F - 35.6 °F 62% 29.89 in 10.0 mi Calm Calm - N/A   Partly Cloudy
1:35 PM 50.0 °F - 37.4 °F 62% 29.88 in 10.0 mi SW 5.8 mph - N/A   Mostly Cloudy
1:55 PM 51.8 °F - 37.4 °F 58% 29.86 in 10.0 mi West 3.5 mph - N/A   Overcast
2:15 PM 53.6 °F - 39.2 °F 58% 29.85 in 10.0 mi West 8.1 mph - N/A   Overcast
2:35 PM 53.6 °F - 39.2 °F 58% 29.85 in 10.0 mi WSW 10.4 mph - N/A   Overcast
2:55 PM 51.8 °F - 39.2 °F 62% 29.85 in 10.0 mi SW 10.4 mph - N/A   Overcast
3:15 PM 50.0 °F - 39.2 °F 66% 29.84 in 10.0 mi SW 8.1 mph - N/A   Overcast
3:35 PM 50.0 °F - 39.2 °F 66% 29.83 in 10.0 mi South 3.5 mph - N/A   Mostly Cloudy
3:55 PM - - - N/A% - 10.0 mi Calm Calm - N/A   Mostly Cloudy
4:55 PM 53.6 °F - 39.2 °F 58% 29.78 in 10.0 mi North - - N/A   Overcast
5:15 PM 55.4 °F - 39.2 °F 54% 29.77 in 10.0 mi North - - N/A   Overcast
5:35 PM - - - N/A% - - North - - N/A   Unknown
6:35 PM 50.0 °F - 39.2 °F 66% 29.75 in 10.0 mi North - - N/A   Overcast
7:15 PM - - - N/A% - 10.0 mi Calm Calm - N/A   Overcast
7:55 PM - - - N/A% 29.78 in 10.0 mi North - - N/A   Overcast
8:35 PM - - - N/A% 29.69 in 10.0 mi North - - N/A   Overcast
8:55 PM - - - N/A% 29.68 in 6.0 mi SW 8.1 mph - 0.01 in Rain Light Rain
10:15 PM 50.0 °F - 50.0 °F 100% 29.63 in - Calm Calm - N/A Rain Rain
10:55 PM - - - N/A% 29.61 in 5.0 mi North - - 0.15 in Rain Light Rain